Location: Gälforsberget
(66.6500°N, 22.4167°E)
Time: 06:38:03
(UTC+00:00)

USA 281 - Pass Details

Date: 11 April 2026
Orbit: 1079 x 1080 km, 106.0° (Epoch: 5 January)

Event Time Altitude Azimuth Distance (km) Brightness Sun altitude
Exits shadow 20:54:24 - 107° (ESE) 3,722 5.6 -12.7°
Reaches altitude 10° 20:56:31 10° 105° (ESE) 2,928 5.1 -12.8°
Maximum altitude 21:02:58 61° 27° (NNE) 1,226 3.7 -13.1°
Drops below altitude 10° 21:09:25 10° 310° (NW) 2,934 6.5 -13.3°
Sets 21:11:58 0° 307° (NW) 3,892 7.2 -13.4°
